Location: *
(43.7000°S, 168.7000°W)
Time: 14:48:56
(UTC+00:00)

Cosmos 2297 Rocket - Pass Details

Date: 07 July 2020
Orbit: 839 x 843 km, 71.0° (Epoch: 03 August)

Event Time Altitude Azimuth Distance (km) Brightness Sun altitude
Exits shadow 16:32:26 29° 198° (SSW) 1,513 3.3 -23.7°
Maximum altitude 16:35:27 77° 116° (ESE) 878 2.3 -23.1°
Drops below altitude 10° 16:41:07 10° 29° (NNE) 2,462 5.1 -22.1°
Sets 16:43:33 0° 28° (NNE) 3,389 5.9 -21.7°
